GFSMA_850_dewp_069.txt.gz
Dewpoint
9 9 9 8 9 8 8 8 8 8 6 -1 -6 -9 -12 -15 -18 -19 -19 -19 -19 -18 -7 1 2 2 2 -0 -1 -1 -2 -3 -4 -4 -7 -7 -8 -9 -10 -15 -16 -16 -16
9 8 8 9 8 8 8 8 7 -0 -5 -7 -10 -13 -15 -19 -21 -21 -20 -20 -18 -12 -9 1 3 3 3 1 -1 -2 -3 -3 -3 -4 -4 -6 -6 -7 -8 -11 -12 -12 -13
8 8 8 8 8 8 8 1 -4 -3 -6 -10 -12 -16 -19 -21 -21 -19 -20 -19 -14 -9 -4 0 1 2 2 1 -0 1 -0 -1 -1 -3 -4 -5 -5 -7 -9 -10 -10 -11 -11
8 7 7 8 8 5 -2 -2 -3 -5 -7 -9 -14 -17 -16 -17 -16 -17 -15 -14 -16 -9 -1 0 -0 -0 -1 -2 -1 0 1 0 0 -0 -2 -4 -5 -5 -8 -10 -10 -13 -14
6 6 8 7 2 -2 -1 -1 -1 -2 -4 -10 -12 -12 -11 -12 -13 -12 -11 -12 -13 -14 -10 -7 -6 -6 -5 -5 -2 -0 -1 -1 -1 -1 -1 -1 -3 -4 -6 -8 -11 -16 -11
4 5 7 2 -1 -0 0 -0 -0 -1 -3 -7 -8 -7 -8 -9 -9 -9 -11 -10 -11 -13 -14 -14 -13 -11 -8 -7 -7 -6 -2 -2 -1 0 -1 -0 -0 -1 -3 -5 -8 -12 -3
5 5 1 -0 0 1 0 -0 -0 -0 -2 -4 -5 -3 -6 -8 -8 -7 -11 -9 -9 -8 -8 -8 -10 -11 -7 -6 -6 -7 -7 -4 -1 -1 1 1 -1 -1 -1 -3 -2 -9 -8
3 0 1 1 2 1 -0 -0 0 -0 -1 -2 -3 -4 -4 -5 -10 -10 -9 -7 -7 -7 -7 -7 -9 -9 -8 -6 -5 -6 -7 -7 -7 -7 -5 -3 -2 -2 -2 -3 -3 -3 -3
1 1 1 2 2 0 -0 1 2 1 -0 -2 -3 -6 -6 -8 -5 -7 -11 -9 -6 -5 -6 -7 -9 -9 -11 -5 -4 -5 -6 -7 -9 -10 -7 -5 -3 -3 -3 -2 -4 -3 -4
2 2 2 3 2 -0 -1 2 2 1 -2 -3 -8 -14 -17 -12 -7 -8 -5 -6 -6 -5 -3 -3 -6 -10 -7 -3 -3 -6 -7 -8 -10 -12 -12 -7 -6 -5 -4 -2 -4 -4 -3
3 3 2 3 1 0 1 3 2 -2 -3 -8 -16 -17 -17 -14 -12 -5 -6 -4 -3 -3 -3 -3 -9 -9 -10 -5 -4 -6 -7 -8 -9 -10 -11 -10 -6 -5 -5 -5 -4 -3 -5
4 3 3 3 1 2 3 3 -1 -3 -9 -14 -17 -18 -16 -6 -5 -3 -4 -6 -5 -4 -3 -3 -5 -7 -9 -7 -5 -6 -7 -7 -8 -10 -10 -11 -9 -6 -6 -6 -6 -6 -6
4 3 4 3 3 0 3 3 -4 -9 -11 -14 -16 -15 -12 -10 -8 -5 -5 -6 -5 -5 -4 -3 -4 -6 -8 -8 -6 -6 -6 -7 -8 -8 -9 -10 -10 -10 -6 -6 -7 -7 -7
3 4 4 3 2 3 2 -4 -8 -9 -11 -12 -13 -11 -10 -8 -7 -8 -8 -5 -5 -6 -6 -4 -5 -7 -7 -7 -6 -6 -7 -9 -11 -14 -17 -20 -21 -20 -19 -12 -8 -8 -8
4 4 4 2 4 3 -3 -6 -9 -9 -10 -10 -11 -10 -7 -6 -6 -8 -14 -10 -4 -6 -8 -7 -6 -7 -7 -8 -9 -10 -11 -14 -20 -23 -24 -24 -24 -23 -22 -18 -10 -8 -8
4 3 3 4 3 -5 -8 -8 -8 -9 -8 -11 -9 -7 -6 -5 -6 -8 -12 -10 -5 -6 -7 -8 -7 -6 -6 -9 -10 -11 -15 -19 -22 -23 -22 -22 -21 -20 -20 -18 -11 -9 -9
3 3 4 2 -6 -8 -7 -8 -9 -8 -9 -8 -7 -6 -5 -5 -6 -8 -10 -7 -6 -5 -6 -7 -6 -7 -9 -9 -10 -12 -16 -19 -21 -22 -21 -20 -19 -18 -16 -10 -9 -10 -10
4 4 3 -5 -5 -6 -9 -9 -8 -9 -7 -6 -6 -5 -4 -5 -6 -8 -8 -6 -5 -5 -6 -6 -7 -9 -9 -10 -11 -13 -17 -20 -21 -20 -20 -20 -19 -19 -18 -16 -15 -14 -13
4 -1 -6 -5 -7 -9 -9 -8 -10 -9 -8 -7 -6 -4 -5 -5 -7 -7 -6 -5 -6 -6 -6 -6 -7 -9 -9 -10 -11 -12 -15 -20 -20 -20 -20 -20 -19 -17 -16 -15 -15 -14 -13
-3 -7 -7 -10 -5 -4 -6 -11 -12 -11 -11 -10 -7 -6 -6 -7 -8 -7 -5 -5 -6 -6 -6 -7 -8 -9 -9 -10 -11 -12 -14 -13 -13 -17 -19 -18 -17 -19 -17 -16 -15 -14 -14
-7 -10 -6 -3 -5 -12 -14 -14 -14 -14 -15 -14 -12 -10 -8 -8 -8 -8 -7 -6 -6 -7 -7 -7 -9 -9 -10 -10 -11 -13 -13 -13 -12 -13 -13 -12 -12 -13 -11 -12 -14 -16 -14
-3 -3 -2 -5 -14 -17 -15 -14 -15 -15 -16 -14 -12 -11 -8 -7 -7 -9 -10 -6 -6 -7 -7 -8 -9 -9 -9 -10 -11 -12 -12 -12 -12 -12 -12 -12 -12 -13 -11 -11 -14 -15 -16
-1 -4 -9 -14 -17 -16 -15 -16 -17 -16 -15 -15 -11 -8 -7 -6 -8 -10 -11 -7 -8 -9 -9 -8 -8 -8 -9 -10 -12 -12 -12 -12 -12 -12 -13 -12 -12 -12 -11 -12 -14 -13 -14
-5 -8 -11 -16 -14 -15 -16 -16 -16 -15 -14 -15 -13 -9 -6 -7 -8 -9 -9 -7 -8 -8 -9 -10 -10 -9 -10 -11 -14 -11 -11 -12 -12 -12 -12 -11 -12 -11 -11 -16 -13 -12 -12
-11 -16 -16 -15 -15 -16 -15 -15 -13 -12 -13 -12 -13 -13 -11 -9 -8 -9 -9 -7 -8 -8 -9 -10 -11 -10 -11 -13 -14 -12 -11 -11 -11 -12 -12 -12 -12 -12 -11 -16 -14 -14 -13
-16 -15 -15 -13 -11 -10 -9 -8 -8 -8 -7 -7 -9 -11 -12 -13 -9 -8 -8 -8 -8 -8 -9 -9 -10 -11 -12 -13 -13 -13 -12 -12 -11 -12 -12 -12 -13 -12 -12 -11 -10 -12 -14

GFSMA_850_dewp_072.txt.gz
Dewpoint
7 7 8 8 8 8 8 8 8 7 4 -5 -7 -9 -11 -13 -17 -7 -0 -19 -21 -18 -8 -1 1 2 1 -1 -1 -1 0 -3 -4 -5 -5 -6 -7 -7 -7 -9 -10 -11 -12
9 9 8 9 9 7 8 7 6 -1 -5 -6 -7 -10 -13 -17 -16 -15 -2 -2 -17 -15 -8 -3 3 3 3 1 -0 -1 -1 -1 -2 -3 -4 -5 -6 -5 -6 -8 -9 -9 -10
8 7 8 8 8 8 8 5 -3 -3 -5 -5 -6 -9 -11 -14 -12 -17 -7 -2 -1 -6 -10 -3 1 2 2 2 1 2 2 2 0 -1 -2 -4 -4 -5 -5 -7 -10 -10 -13
8 7 8 8 8 8 4 -2 -2 -2 -1 -3 -4 -5 -9 -11 -13 -13 -8 -8 -6 -7 -4 -7 -3 -1 -0 -0 0 1 1 0 2 -0 -1 -2 -3 -4 -4 -6 -7 -9 -13
7 7 7 8 8 3 -2 -1 -0 -0 -1 -2 -3 -3 -9 -5 -6 -6 -5 -6 -5 -7 -9 -5 -13 -12 -9 -8 -6 -6 -1 -0 -0 1 1 -0 1 -0 -2 -3 -4 -7 -7
7 6 7 7 3 -1 -0 0 -0 0 0 -0 -2 -2 -1 -3 -4 -3 -4 -5 -4 -4 -5 -5 -5 -7 -7 -13 -10 -7 -7 -1 -0 1 2 1 1 1 1 -0 -3 -5 -7
6 6 7 5 -1 -0 1 0 0 1 1 1 1 0 -1 -1 -2 -3 -3 -4 -4 -4 -3 -4 -4 -6 -7 -6 -7 -10 -7 -5 -2 -2 -2 -1 -1 -1 0 0 -1 -5 -6
6 6 5 0 -0 1 1 -0 1 2 2 1 0 -1 -3 -4 -2 -3 -3 -4 -3 -3 -4 -4 -3 -4 -4 -6 -6 -7 -7 -7 -7 -7 -6 -6 -6 -3 -1 -1 -1 -2 -1
6 5 1 0 0 2 1 -0 2 2 2 2 0 -2 -7 -8 -9 -7 -4 -3 -3 -2 -4 -3 -3 -3 -4 -5 -5 -5 -5 -6 -6 -6 -8 -5 -4 -4 -3 -3 -3 -2 -3
4 2 1 1 2 2 1 0 2 2 1 1 -0 -2 -3 -5 -9 -10 -9 -6 -4 -3 -3 -3 -4 -4 -4 -4 -4 -5 -5 -4 -5 -7 -8 -10 -6 -4 -4 -4 -3 -3 -2
4 2 2 2 2 2 1 0 3 3 1 -1 -5 -6 -6 -5 -5 -4 -4 -5 -6 -7 -6 -5 -4 -4 -5 -4 -5 -5 -5 -6 -6 -6 -7 -8 -10 -6 -5 -5 -5 -5 -4
5 3 3 3 3 3 1 2 3 3 -1 -6 -5 -6 -7 -7 -7 -6 -7 -8 -8 -9 -8 -5 -5 -5 -5 -5 -6 -8 -7 -6 -6 -7 -7 -7 -8 -9 -7 -5 -5 -5 -5
6 5 3 3 3 3 2 3 4 -1 -7 -4 -5 -6 -5 -4 -5 -6 -6 -7 -8 -9 -8 -6 -6 -6 -6 -6 -7 -7 -7 -6 -6 -6 -9 -10 -12 -14 -15 -12 -6 -5 -6
6 5 4 4 3 2 4 3 1 -4 -3 -5 -4 -4 -5 -4 -5 -5 -6 -8 -7 -8 -9 -9 -8 -6 -7 -7 -7 -7 -9 -7 -9 -11 -12 -17 -22 -24 -25 -25 -24 -16 -8
6 5 4 4 3 3 3 2 -4 -2 -4 -4 -4 -3 -3 -5 -4 -5 -5 -7 -8 -7 -9 -10 -10 -8 -7 -7 -7 -6 -8 -8 -10 -15 -21 -24 -24 -24 -24 -23 -22 -17 -8
5 4 4 3 3 3 2 -7 -4 -2 -3 -3 -3 -3 -3 -4 -4 -5 -5 -6 -7 -8 -8 -9 -10 -9 -7 -7 -8 -8 -9 -9 -13 -18 -24 -25 -24 -23 -22 -21 -19 -11 -8
5 5 3 3 4 2 -7 -6 -3 -3 -3 -3 -3 -3 -4 -4 -4 -5 -6 -6 -7 -7 -8 -9 -9 -9 -6 -6 -8 -8 -9 -10 -12 -15 -16 -23 -22 -22 -21 -20 -20 -17 -18
5 4 5 4 0 -5 -5 -4 -4 -4 -3 -3 -4 -3 -4 -4 -4 -5 -6 -6 -7 -7 -8 -7 -7 -8 -6 -7 -8 -8 -9 -11 -13 -14 -14 -22 -21 -21 -21 -20 -20 -19 -18
4 4 4 -2 -5 -5 -5 -3 -3 -3 -3 -4 -4 -4 -4 -5 -5 -5 -6 -7 -8 -8 -8 -7 -7 -8 -7 -7 -9 -9 -11 -12 -13 -14 -15 -17 -16 -18 -19 -21 -20 -18 -17
4 1 1 -4 -7 -7 -3 -3 -4 -5 -5 -5 -5 -5 -5 -5 -5 -6 -6 -7 -8 -8 -7 -7 -6 -6 -7 -8 -9 -11 -12 -13 -14 -14 -13 -13 -13 -12 -13 -13 -12 -13 -16
-0 2 -4 -10 -5 -2 -4 -6 -7 -6 -6 -6 -6 -5 -4 -5 -5 -8 -8 -7 -8 -7 -6 -6 -6 -7 -9 -10 -11 -11 -12 -13 -13 -12 -12 -12 -12 -12 -12 -12 -12 -11 -10
1 -6 -5 -1 -3 -5 -9 -16 -15 -14 -8 -7 -7 -7 -6 -6 -5 -6 -7 -7 -9 -7 -6 -6 -6 -7 -9 -11 -10 -10 -11 -13 -13 -12 -12 -12 -12 -12 -12 -12 -12 -12 -14
-3 -2 -2 -7 -7 -6 -11 -16 -16 -16 -12 -9 -8 -8 -7 -8 -7 -6 -6 -6 -7 -9 -7 -6 -6 -7 -8 -8 -9 -10 -12 -13 -13 -13 -12 -12 -12 -11 -11 -12 -11 -11 -13
-2 -3 -4 -5 -6 -8 -16 -16 -15 -14 -9 -8 -7 -7 -7 -7 -7 -7 -7 -7 -7 -7 -7 -8 -8 -9 -9 -9 -9 -11 -12 -11 -11 -11 -12 -11 -11 -11 -11 -11 -11 -11 -12
-4 -6 -7 -7 -7 -7 -7 -11 -9 -8 -6 -6 -6 -6 -6 -6 -6 -7 -6 -6 -7 -7 -7 -8 -9 -9 -9 -10 -11 -10 -10 -10 -10 -11 -12 -12 -11 -12 -12 -11 -9 -9 -11
-11 -7 -7 -7 -8 -10 -7 -9 -9 -8 -8 -6 -6 -6 -6 -6 -6 -6 -8 -7 -7 -7 -7 -7 -8 -10 -11 -10 -11 -12 -10 -10 -11 -11 -12 -12 -12 -13 -12 -11 -10 -11 -9

GFSMA_850_dewp_075.txt.gz
Dewpoint
10 9 9 9 8 8 8 7 7 6 4 -4 -4 -5 -4 -5 -5 -3 0 -3 -16 -18 -9 -1 1 2 -1 -2 -2 -2 -1 -1 -1 -3 -5 -5 -7 -7 -6 -6 -8 -9 -11
9 9 9 9 8 8 8 7 5 2 -1 -2 -3 -4 -6 -6 -6 -10 -2 -1 -3 -13 -12 -8 1 3 2 -1 -2 -2 -2 1 -0 0 -1 -4 -5 -5 -5 -6 -7 -9 -10
9 9 9 9 8 7 7 6 2 -1 -1 -2 -2 -2 -3 -4 -3 -4 -5 -3 -2 -4 -7 -10 -3 -2 -0 1 1 2 2 1 2 1 0 -2 -3 -4 -4 -4 -6 -6 -8
8 8 9 9 7 8 6 2 1 -0 0 -0 -0 -1 -2 -3 -3 -4 -4 -5 -5 -7 -5 -6 -10 -10 -5 -3 -2 -2 1 1 1 1 -1 1 0 -0 -1 -1 -3 -3 -6
8 10 9 8 7 6 4 2 1 1 1 -0 -1 -1 0 -2 -2 -5 -3 -4 -3 -3 -6 -5 -6 -7 -7 -8 -12 -14 -11 -8 -0 1 2 2 2 2 2 1 0 -1 -2
8 9 9 7 7 5 3 2 2 1 2 2 1 0 1 0 -2 -2 -2 -3 -4 -3 -3 -3 -3 -4 -6 -7 -7 -10 -15 -13 -2 0 1 1 1 1 1 1 1 0 -2
8 9 8 7 6 4 3 0 1 1 3 3 2 2 1 1 -0 -1 -2 -2 -3 -3 -3 -3 -2 -4 -5 -5 -5 -5 -6 -12 -14 -6 -1 -3 -2 -1 -1 -1 0 -2 -0
8 9 8 7 5 4 2 1 2 3 3 3 2 1 -1 -2 -1 -1 -2 -2 -2 -2 -2 -3 -3 -2 -3 -3 -5 -5 -5 -7 -10 -10 -6 -6 -6 -4 -2 -2 -2 -1 -1
9 9 8 6 5 4 3 2 3 4 3 3 3 2 -1 -4 -4 -5 -5 -3 -2 -2 -1 -2 -3 -3 -3 -3 -4 -4 -4 -4 -6 -8 -6 -6 -5 -5 -3 -3 -3 -3 -2
8 7 7 6 5 4 4 4 4 4 4 3 2 1 -0 -1 -2 -3 -5 -5 -5 -3 -3 -3 -3 -3 -3 -4 -4 -4 -4 -5 -6 -9 -8 -6 -6 -6 -4 -3 -3 -3 -3
7 7 6 6 5 4 4 4 3 2 3 3 0 -2 -3 -4 -5 -4 -4 -4 -4 -6 -8 -8 -6 -4 -4 -4 -4 -4 -5 -6 -7 -10 -7 -6 -7 -7 -7 -5 -4 -4 -4
7 6 6 5 5 4 4 3 1 2 3 3 -1 -2 -4 -5 -5 -5 -4 -5 -7 -7 -8 -8 -7 -5 -4 -5 -5 -6 -6 -7 -10 -8 -7 -7 -7 -8 -9 -8 -6 -5 -5
7 7 6 6 5 4 4 1 2 2 2 0 -1 -2 -5 -4 -3 -4 -4 -6 -6 -8 -8 -8 -8 -6 -6 -6 -6 -6 -7 -7 -9 -9 -9 -11 -12 -13 -14 -17 -19 -12 -7
7 7 6 6 6 4 2 3 2 1 2 -2 -1 -2 -3 -4 -4 -4 -5 -6 -6 -7 -8 -8 -9 -9 -7 -6 -6 -7 -7 -7 -6 -7 -8 -10 -13 -20 -24 -25 -25 -22 -10
7 7 6 6 5 4 2 3 3 -0 -3 -1 -1 -1 -2 -2 -3 -4 -4 -5 -5 -6 -7 -8 -8 -9 -9 -7 -6 -7 -6 -5 -6 -8 -9 -12 -19 -24 -25 -25 -24 -22 -15
7 6 6 5 5 3 2 3 2 -1 -0 -1 -1 -2 -2 -2 -4 -4 -5 -5 -5 -6 -6 -8 -8 -8 -8 -9 -8 -6 -7 -7 -8 -8 -9 -11 -16 -21 -23 -24 -23 -22 -21
7 6 5 5 3 3 3 3 -1 -1 -1 -1 -2 -2 -2 -3 -4 -4 -5 -5 -6 -6 -7 -7 -8 -9 -8 -8 -8 -6 -7 -7 -8 -9 -11 -13 -14 -17 -21 -22 -22 -21 -21
7 6 5 4 4 4 1 -1 -1 -1 -2 -2 -2 -2 -3 -4 -4 -4 -4 -5 -6 -6 -7 -7 -8 -8 -9 -8 -8 -4 -6 -8 -10 -11 -11 -12 -14 -16 -16 -20 -20 -20 -21
5 3 4 4 4 2 -1 -1 -2 -2 -2 -2 -3 -4 -4 -5 -5 -5 -5 -5 -6 -7 -8 -8 -8 -8 -8 -9 -8 -6 -6 -8 -9 -12 -14 -15 -15 -14 -13 -13 -13 -13 -14
3 3 3 3 2 -0 -2 -3 -2 -2 -4 -5 -5 -5 -5 -5 -5 -5 -5 -6 -6 -7 -8 -8 -8 -8 -8 -9 -7 -7 -7 -8 -9 -11 -14 -13 -13 -12 -11 -12 -12 -12 -12
3 3 3 0 -3 -3 -2 -2 -3 -5 -6 -7 -6 -6 -7 -6 -6 -5 -5 -6 -6 -7 -7 -7 -8 -8 -7 -7 -7 -7 -6 -8 -8 -12 -12 -12 -12 -12 -12 -12 -12 -12 -11
3 1 2 -3 -1 -1 -2 -5 -10 -17 -13 -8 -8 -8 -8 -8 -7 -7 -7 -6 -5 -6 -6 -7 -7 -7 -7 -6 -6 -7 -7 -8 -10 -12 -13 -12 -11 -12 -12 -12 -12 -12 -12
0 -2 -1 -0 -1 -3 -5 -7 -14 -16 -15 -9 -8 -8 -8 -8 -8 -7 -7 -7 -6 -5 -5 -5 -6 -7 -7 -7 -6 -8 -9 -9 -10 -12 -11 -11 -12 -11 -11 -12 -11 -11 -12
0 1 -1 -2 -3 -5 -6 -8 -11 -13 -11 -7 -6 -6 -6 -7 -7 -7 -7 -6 -6 -8 -6 -6 -6 -6 -7 -7 -7 -7 -7 -9 -11 -11 -11 -11 -11 -10 -11 -11 -12 -11 -10
-1 -2 -4 -6 -6 -6 -6 -6 -7 -7 -6 -6 -5 -6 -6 -6 -6 -7 -7 -6 -6 -8 -6 -6 -7 -8 -8 -8 -9 -9 -9 -9 -10 -10 -10 -10 -10 -11 -12 -12 -11 -10 -10
-5 -7 -7 -6 -5 -6 -5 -5 -8 -8 -17 -18 -14 -9 -10 -10 -10 -10 -8 -7 -7 -7 -7 -6 -7 -7 -8 -9 -10 -11 -11 -10 -10 -10 -11 -10 -9 -10 -12 -12 -10 -12 -11

GFSMA_850_dewp_078.txt.gz
Dewpoint
-2 -0 3 5 6 7 7 7 7 7 7 -3 -4 -4 -4 -3 -5 -3 -2 -4 -5 -16 -11 -3 -4 -4 -4 -4 -4 -4 -3 -2 -2 -2 -2 -2 -5 -5 -6 -5 -6 -7 -9
9 9 9 8 8 8 7 7 7 5 -1 -2 -2 -2 -3 -4 -5 -3 -5 -3 -4 -7 -13 -14 -7 -6 -2 -3 -3 -4 -1 3 0 1 0 -1 -2 -2 -3 -4 -3 -4 -4
9 9 9 8 8 8 8 7 5 0 -1 -1 -1 -2 -2 -3 -3 -7 -4 -3 -4 -5 -7 -7 -9 -9 -4 -4 -3 -2 2 2 2 2 1 -1 1 1 0 -1 -1 -1 -2
7 8 8 9 8 8 7 6 3 -1 0 -0 -0 -1 -2 -3 -3 -4 -5 -4 -4 -5 -5 -6 -7 -7 -13 -12 -11 -12 -13 -11 -5 0 2 2 1 1 2 2 1 0 -0
9 9 9 9 8 7 6 4 1 1 1 -0 -0 -2 -1 -1 -2 -4 -4 -4 -5 -4 -4 -4 -4 -4 -4 -6 -7 -8 -13 -19 -15 -2 -0 2 2 1 1 1 1 1 1
8 8 9 9 8 7 4 2 1 2 2 1 0 1 0 1 -1 -2 -2 -2 -3 -3 -3 -3 -3 -3 -4 -4 -5 -5 -8 -10 -14 -10 -1 -1 -0 -0 -1 0 0 0 -1
9 9 9 8 7 6 4 2 2 1 1 1 1 3 2 1 1 -1 -3 -2 -2 -3 -3 -3 -3 -3 -3 -3 -3 -3 -5 -6 -7 -11 -14 -10 -5 -3 -1 -1 -1 -1 -0
9 9 9 7 7 5 4 2 2 3 4 3 1 2 1 1 1 -1 -3 -4 -3 -2 -3 -2 -3 -3 -3 -2 -3 -3 -4 -4 -4 -5 -10 -13 -12 -10 -6 -2 -2 -2 -2
7 8 9 8 7 5 4 2 3 4 4 4 3 2 1 -1 -2 -3 -3 -3 -3 -4 -4 -4 -3 -3 -2 -3 -3 -3 -4 -3 -4 -5 -8 -11 -12 -5 -4 -3 -3 -3 -3
8 9 9 8 6 5 4 3 3 4 4 3 3 2 0 -1 -2 -2 -4 -4 -3 -3 -4 -4 -5 -6 -4 -3 -3 -4 -4 -4 -4 -5 -7 -10 -11 -8 -4 -4 -4 -4 -4
7 8 8 7 6 5 4 4 4 4 4 3 3 3 -1 -2 -3 -4 -5 -5 -4 -4 -5 -7 -8 -8 -6 -6 -4 -4 -4 -4 -5 -7 -9 -12 -12 -9 -7 -5 -5 -5 -5
8 9 7 7 6 5 4 4 4 4 2 2 3 0 -2 -3 -4 -4 -4 -4 -4 -5 -6 -7 -8 -9 -8 -5 -5 -4 -5 -5 -6 -7 -9 -10 -11 -11 -11 -11 -7 -6 -6
8 8 8 7 6 5 4 4 4 3 2 2 2 0 -1 -4 -5 -4 -3 -3 -4 -5 -6 -7 -8 -8 -8 -8 -6 -6 -6 -6 -6 -7 -9 -12 -9 -10 -11 -13 -20 -15 -7
7 8 8 6 6 6 5 4 3 3 2 2 1 -2 -4 -5 -4 -4 -3 -4 -5 -5 -5 -6 -7 -8 -8 -8 -7 -6 -6 -6 -7 -7 -9 -8 -8 -10 -10 -17 -24 -22 -13
7 9 8 6 6 6 5 5 3 3 3 3 -0 -2 -2 -2 -3 -2 -3 -4 -4 -4 -4 -5 -6 -7 -8 -9 -8 -8 -8 -7 -6 -6 -7 -7 -9 -9 -10 -14 -18 -22 -23
9 8 8 7 6 6 5 3 3 3 3 0 -0 -0 -1 -2 -2 -2 -3 -4 -4 -4 -5 -5 -6 -6 -7 -8 -8 -8 -8 -7 -6 -5 -6 -8 -8 -10 -12 -13 -15 -21 -22
9 8 7 7 6 6 5 3 3 3 -0 -0 -0 -1 -1 -2 -2 -2 -3 -4 -4 -4 -5 -5 -6 -6 -7 -7 -8 -8 -8 -7 -6 -5 -5 -9 -10 -10 -12 -15 -15 -16 -19
9 8 7 6 6 5 4 4 3 1 1 -0 -1 -2 -2 -2 -2 -3 -3 -4 -4 -4 -5 -5 -5 -6 -7 -7 -7 -7 -8 -8 -8 -7 -7 -10 -11 -13 -15 -14 -13 -13 -13
8 8 6 5 4 4 4 3 2 0 -1 -1 -1 -2 -2 -3 -4 -4 -4 -4 -4 -4 -4 -5 -6 -6 -7 -7 -7 -8 -8 -9 -8 -6 -8 -9 -12 -14 -13 -13 -12 -12 -12
8 7 3 3 4 3 2 1 -1 -2 -2 -2 -3 -4 -5 -5 -6 -6 -5 -5 -4 -4 -5 -5 -6 -7 -7 -7 -8 -7 -9 -10 -8 -7 -8 -9 -11 -13 -13 -12 -11 -12 -12
6 3 4 3 4 2 -2 -3 -3 -1 -2 -4 -5 -6 -7 -7 -7 -7 -7 -7 -7 -7 -7 -6 -6 -7 -7 -8 -9 -8 -7 -7 -6 -7 -7 -10 -11 -13 -11 -11 -12 -12 -11
3 4 3 3 -0 -2 -2 -2 -1 -2 -4 -11 -19 -18 -15 -11 -11 -9 -9 -8 -8 -7 -7 -7 -5 -5 -5 -7 -8 -9 -8 -6 -6 -8 -9 -10 -12 -12 -11 -11 -14 -11 -11
4 2 1 -2 -2 -0 0 -1 -3 -7 -13 -18 -18 -16 -11 -8 -7 -7 -6 -6 -6 -6 -6 -5 -4 -4 -5 -7 -7 -8 -7 -6 -7 -8 -9 -10 -11 -12 -13 -13 -10 -11 -11
1 -1 -1 -0 0 -2 -3 -5 -6 -8 -10 -12 -11 -8 -6 -7 -6 -5 -6 -6 -6 -6 -6 -5 -5 -5 -7 -7 -7 -8 -8 -7 -9 -10 -10 -11 -13 -14 -12 -9 -10 -12 -13
1 1 -0 -2 -3 -5 -5 -6 -6 -7 -8 -9 -11 -14 -20 -19 -17 -16 -13 -14 -15 -17 -17 -10 -8 -8 -7 -7 -6 -6 -8 -8 -9 -10 -11 -11 -13 -10 -10 -11 -11 -12 -12
-1 -2 -5 -6 -6 -5 -5 -6 -10 -12 -12 -21 -28 -29 -28 -29 -28 -19 -11 -10 -10 -11 -10 -12 -11 -9 -9 -7 -7 -9 -9 -9 -9 -10 -14 -11 -12 -10 -10 -11 -13 -10 -11

GFSMA_850_dewp_081.txt.gz
Dewpoint
1 -2 1 1 4 5 6 6 6 6 6 6 -4 -3 -3 -3 -4 -4 -3 -5 -5 -11 -10 -6 -9 -6 -8 -9 -9 -7 -6 1 -0 0 -0 -1 -2 -2 -1 -3 -2 -3 -2
-1 -1 -1 3 5 7 7 7 7 7 5 -3 -2 -2 -3 -4 -4 -5 -6 -6 -5 -6 -9 -10 -11 -10 -6 -6 -5 -3 0 2 0 3 1 -1 0 1 0 0 0 0 -0
-1 -2 3 4 7 8 7 7 7 4 -1 -2 -1 -2 -2 -2 -3 -4 -7 -6 -5 -6 -8 -8 -8 -8 -9 -9 -6 -6 -6 -3 0 2 1 2 1 1 1 1 2 1 0
9 7 6 7 8 8 7 7 6 4 -1 -1 -1 -1 -1 -1 -2 -2 -5 -6 -6 -6 -7 -6 -7 -6 -7 -6 -7 -9 -10 -13 -10 -6 1 1 2 0 1 1 1 1 1
6 7 7 8 8 8 8 7 6 0 -0 -0 -0 -1 -2 -0 -1 -2 -4 -4 -4 -5 -4 -3 -5 -4 -4 -4 -5 -6 -8 -10 -12 -8 -0 -0 1 1 -0 0 -0 1 1
5 7 9 9 8 8 8 7 5 0 1 0 0 -1 0 1 1 1 -2 -3 -3 -3 -3 -3 -3 -3 -3 -4 -4 -6 -7 -6 -8 -9 -11 -11 -10 -5 -7 -4 -1 -1 -0
7 8 9 8 8 8 7 5 1 1 2 1 1 1 2 3 2 2 0 -4 -4 -3 -3 -3 -3 -2 -3 -3 -3 -4 -5 -4 -2 -3 -6 -14 -17 -15 -9 -2 -2 -2 -2
7 8 8 7 8 7 6 5 2 1 2 2 2 1 1 1 1 2 -0 -3 -3 -2 -2 -4 -5 -3 -3 -3 -3 -3 -3 -4 -6 -6 -6 -8 -12 -14 -5 -3 -3 -3 -3
7 7 8 8 8 7 6 5 3 2 2 3 3 3 2 -0 0 -1 -3 -2 -2 -3 -3 -4 -4 -5 -5 -5 -3 -3 -3 -4 -5 -6 -7 -8 -10 -12 -13 -4 -4 -4 -4
7 7 8 8 8 7 6 5 4 2 4 4 4 3 2 2 -0 -2 -3 -3 -2 -3 -3 -3 -3 -4 -4 -5 -5 -4 -5 -6 -6 -6 -6 -7 -10 -11 -13 -11 -5 -5 -5
7 8 8 8 8 8 6 5 4 2 4 4 3 3 3 2 -1 -2 -3 -5 -4 -4 -4 -6 -7 -7 -8 -6 -6 -7 -6 -6 -6 -6 -6 -6 -7 -9 -13 -13 -10 -6 -5
7 7 8 8 9 8 7 5 4 3 3 4 3 3 3 -1 -2 -2 -4 -4 -4 -4 -4 -4 -6 -7 -8 -9 -8 -8 -6 -6 -5 -5 -6 -6 -7 -8 -10 -12 -12 -9 -8
7 7 8 9 9 8 6 5 4 4 4 4 2 2 1 -1 -2 -4 -5 -4 -3 -3 -4 -6 -7 -7 -9 -8 -8 -7 -6 -5 -6 -6 -6 -6 -7 -7 -8 -9 -12 -12 -17
7 7 7 9 8 7 7 5 5 4 4 3 2 2 0 1 2 -2 -4 -4 -3 -3 -4 -6 -7 -9 -10 -8 -8 -8 -8 -8 -7 -7 -7 -7 -7 -6 -7 -9 -10 -11 -13
7 7 8 9 8 7 6 6 5 5 4 3 2 2 2 2 -2 -3 -3 -3 -3 -4 -4 -5 -6 -7 -6 -7 -8 -10 -9 -8 -8 -8 -8 -7 -6 -7 -7 -9 -10 -11 -15
9 7 8 9 7 6 6 6 5 5 4 3 3 3 1 -0 -2 -2 -3 -2 -3 -3 -4 -4 -5 -5 -5 -5 -6 -7 -7 -8 -8 -8 -7 -6 -6 -6 -8 -10 -10 -14 -15
9 9 8 9 8 7 6 5 5 5 4 3 3 1 0 -1 -1 -2 -2 -2 -3 -3 -4 -4 -5 -5 -5 -5 -5 -6 -6 -6 -6 -5 -6 -6 -6 -5 -9 -10 -13 -15 -13
9 9 9 8 8 7 5 6 6 4 3 3 3 0 -1 -2 -2 -2 -2 -3 -4 -4 -3 -3 -4 -4 -4 -5 -5 -6 -6 -7 -6 -6 -8 -9 -8 -7 -10 -10 -14 -13 -12
10 9 8 8 8 7 6 5 4 4 3 2 0 -1 -1 -2 -2 -2 -3 -4 -4 -4 -5 -5 -4 -4 -4 -5 -6 -6 -7 -8 -9 -9 -10 -9 -7 -8 -10 -12 -12 -13 -11
10 8 8 8 7 6 5 4 3 2 1 -1 -1 -1 -2 -2 -3 -5 -7 -7 -6 -6 -6 -6 -7 -7 -7 -7 -7 -7 -8 -8 -10 -11 -8 -6 -6 -7 -8 -10 -12 -11 -11
8 9 8 6 4 4 4 3 1 -1 -1 -1 -2 -2 -3 -5 -7 -10 -7 -8 -8 -8 -8 -8 -7 -6 -6 -6 -6 -6 -5 -8 -9 -11 -9 -6 -7 -9 -10 -12 -12 -11 -11
8 7 5 4 3 4 3 -0 -3 -2 -1 -2 -1 -3 -8 -20 -20 -15 -12 -9 -7 -6 -6 -5 -5 -5 -5 -5 -4 -5 -5 -5 -7 -10 -8 -9 -9 -10 -11 -12 -12 -12 -13
7 4 4 4 4 1 0 -1 -1 -1 -1 -2 -5 -13 -20 -19 -16 -11 -8 -7 -6 -6 -6 -5 -6 -6 -6 -5 -5 -5 -7 -6 -8 -9 -7 -7 -9 -10 -11 -12 -14 -13 -10
4 4 3 1 -1 -0 0 -0 -0 -2 -4 -8 -12 -13 -12 -10 -10 -11 -15 -20 -22 -24 -21 -21 -20 -19 -15 -12 -9 -8 -8 -6 -7 -8 -8 -9 -11 -11 -12 -14 -13 -11 -11
4 1 -0 -1 -1 -1 -1 -2 -4 -6 -8 -9 -9 -9 -10 -17 -25 -27 -32 -33 -32 -31 -23 -16 -12 -12 -12 -12 -8 -7 -7 -6 -7 -7 -8 -8 -12 -13 -13 -13 -13 -11 -10
-0 1 1 0 -1 -2 -4 -5 -6 -7 -7 -9 -13 -22 -26 -29 -36 -35 -31 -26 -25 -26 -16 -13 -10 -11 -11 -11 -12 -12 -10 -6 -7 -7 -10 -10 -13 -13 -11 -12 -12 -12 -12

GFSMA_850_dewp_084.txt.gz
Dewpoint
-1 1 0 2 2 4 5 5 5 6 6 6 4 -4 -3 -3 -3 -4 -4 -6 -6 -6 -4 -8 -8 -8 -11 -11 -10 -9 -8 2 -3 2 1 -1 -0 1 0 -0 0 0 -0
0 -1 2 2 1 4 6 6 6 6 7 5 -3 -2 -2 -3 -3 -4 -5 -6 -5 -6 -8 -9 -7 -8 -8 -8 -9 -6 -4 -3 1 2 0 -0 1 2 1 1 1 1 1
0 -0 0 0 2 5 6 7 7 7 5 -3 -1 -2 -2 -1 -1 -3 -4 -6 -6 -6 -7 -9 -7 -8 -8 -9 -11 -11 -10 -10 -8 -4 1 2 1 1 -1 0 0 -1 -0
0 -1 -0 -0 2 6 7 7 7 5 2 -2 -1 -1 -1 -1 -1 -2 -4 -5 -5 -5 -7 -5 -5 -6 -5 -5 -6 -7 -8 -10 -11 -8 -1 -1 0 1 1 1 0 -0 -0
2 4 4 2 5 7 8 7 6 6 2 -1 -1 -1 -2 -1 1 0 -1 -2 -4 -5 -4 -4 -5 -5 -4 -4 -5 -5 -7 -10 -12 -12 -13 -13 -11 -5 -4 -4 -1 -1 -1
7 7 7 8 8 8 8 7 7 6 1 -0 -0 -0 -1 -1 2 2 1 0 -3 -4 -4 -4 -4 -4 -3 -3 -4 -4 -5 -7 -9 -10 -13 -12 -14 -19 -20 -18 -12 -2 -2
6 7 7 7 8 8 8 8 7 7 1 0 -0 1 1 1 2 2 2 0 -2 -4 -3 -3 -2 -4 -4 -3 -4 -4 -6 -8 -6 -7 -8 -9 -10 -12 -13 -17 -18 -5 -2
4 4 7 8 8 9 8 8 7 6 1 1 1 1 2 2 2 2 2 1 -1 -3 -3 -2 -3 -4 -4 -4 -4 -5 -8 -8 -7 -6 -7 -8 -8 -10 -12 -11 -12 -10 -3
3 5 6 7 8 8 8 7 6 5 2 1 1 2 2 2 1 1 2 1 -2 -2 -2 -3 -3 -3 -4 -4 -4 -5 -4 -4 -5 -6 -7 -7 -8 -7 -8 -8 -8 -11 -13
3 6 6 8 8 8 8 7 6 5 2 1 1 3 3 2 2 0 -1 -3 -3 -2 -1 -2 -3 -3 -3 -3 -4 -3 -4 -5 -6 -7 -6 -7 -6 -6 -7 -7 -7 -8 -9
2 5 7 8 8 9 9 7 6 5 4 1 2 3 3 2 2 1 -1 -2 -3 -4 -5 -4 -4 -4 -7 -8 -8 -7 -8 -8 -7 -7 -6 -5 -5 -6 -6 -6 -7 -8 -8
5 6 8 8 8 9 9 8 6 5 5 3 3 4 3 3 2 1 -1 -1 -3 -4 -4 -4 -4 -4 -5 -6 -7 -8 -8 -7 -6 -5 -5 -5 -6 -6 -6 -7 -8 -9 -8
6 6 7 7 8 8 9 8 8 6 4 3 4 4 4 3 2 -1 -2 -2 -4 -4 -4 -4 -4 -5 -7 -9 -10 -9 -8 -8 -8 -8 -6 -6 -6 -6 -7 -7 -7 -8 -9
4 4 7 7 8 9 9 8 7 5 5 5 5 5 4 4 0 -0 3 1 -3 -4 -4 -4 -4 -7 -9 -13 -13 -12 -11 -11 -11 -9 -8 -8 -7 -7 -7 -6 -6 -7 -10
8 7 7 8 8 9 9 8 6 6 5 5 5 4 4 2 2 3 1 -2 -3 -2 -2 -3 -5 -10 -12 -9 -7 -6 -6 -6 -7 -7 -8 -8 -8 -7 -6 -6 -6 -6 -10
8 7 8 8 8 9 9 8 8 6 6 5 4 4 3 3 3 2 2 -2 -2 -2 -2 -3 -4 -6 -6 -6 -6 -6 -5 -5 -6 -6 -6 -6 -6 -5 -5 -4 -6 -8 -10
8 8 8 9 8 8 8 8 7 6 6 4 4 4 4 3 2 0 -1 -2 -2 -2 -2 -3 -3 -4 -4 -4 -4 -5 -5 -5 -5 -6 -6 -6 -4 -6 -7 -8 -7 -9 -10
9 8 8 9 8 8 8 8 7 6 6 5 4 4 3 2 -0 -1 -2 -2 -1 -2 -3 -3 -4 -4 -4 -5 -5 -5 -6 -5 -7 -6 -7 -7 -8 -8 -9 -7 -7 -8 -10
7 9 9 9 8 7 7 7 7 6 6 5 4 3 2 -0 -1 -1 -2 -2 -3 -3 -4 -6 -7 -7 -6 -6 -7 -7 -7 -7 -7 -7 -7 -7 -10 -14 -9 -6 -6 -9 -12
4 9 9 9 8 8 8 8 7 6 5 4 3 1 -1 -1 -1 -2 -2 -3 -5 -7 -8 -7 -8 -8 -8 -8 -7 -7 -6 -6 -6 -6 -6 -7 -9 -12 -8 -6 -6 -8 -9
7 8 9 9 8 8 7 7 6 5 4 2 0 -1 -1 -2 -2 -4 -5 -6 -8 -9 -9 -9 -9 -8 -7 -7 -6 -6 -6 -6 -6 -8 -6 -7 -9 -11 -8 -7 -10 -11 -11
10 9 9 8 8 7 6 5 4 3 2 0 -1 -1 -3 -3 -4 -6 -13 -18 -16 -14 -12 -9 -7 -6 -7 -6 -7 -11 -9 -6 -6 -6 -7 -8 -10 -10 -9 -9 -10 -10 -11
9 9 9 7 6 5 5 4 3 2 -1 -1 -2 -2 -3 -3 -6 -16 -17 -14 -13 -11 -8 -7 -8 -12 -18 -20 -16 -13 -12 -12 -9 -11 -8 -7 -8 -9 -9 -8 -10 -11 -12
8 8 7 5 4 4 4 3 1 -1 -2 -2 -2 -3 -6 -11 -12 -12 -14 -17 -23 -26 -27 -27 -25 -23 -19 -17 -12 -12 -10 -10 -10 -7 -6 -6 -8 -9 -9 -9 -12 -14 -13
7 5 4 4 4 2 2 1 -0 -1 -1 -3 -5 -7 -8 -10 -13 -22 -27 -31 -34 -35 -33 -31 -26 -22 -19 -14 -10 -9 -9 -8 -8 -11 -11 -6 -7 -9 -9 -12 -14 -14 -13
5 4 3 2 0 0 0 -1 -2 -2 -4 -5 -7 -7 -13 -22 -25 -31 -35 -36 -34 -27 -23 -24 -22 -18 -12 -11 -11 -10 -12 -8 -7 -8 -8 -7 -8 -8 -9 -12 -14 -15 -14

GFSMA_850_dewp_087.txt.gz
Dewpoint
3 0 -0 1 1 2 3 4 5 4 5 5 2 -4 -3 -3 -4 -4 -4 -5 -5 -5 -3 -1 -4 -8 -10 -9 -10 -9 -2 -5 -2 2 -2 -1 2 1 1 1 0 1 0
-0 -1 1 1 1 3 5 4 5 5 6 6 -2 -2 -2 -3 -3 -3 -5 -5 -5 -6 -7 -7 -7 -8 -8 -8 -8 -8 -10 -9 -5 2 -2 0 1 0 0 0 0 -1 -2
-0 -1 0 2 0 4 5 6 6 6 6 4 -3 -2 -2 -2 -1 -2 -4 -5 -5 -6 -7 -7 -6 -7 -7 -6 -6 -7 -8 -10 -13 -12 -4 0 0 1 1 0 -0 -0 -0
1 -1 0 1 2 5 5 6 7 7 6 -2 -2 -2 -2 -1 -1 -2 -3 -4 -4 -5 -6 -5 -5 -6 -5 -5 -5 -6 -7 -10 -15 -16 -16 -13 -6 -4 -2 -3 -7 -15 -4
1 0 1 3 3 5 6 6 7 7 2 -2 -1 -1 -2 -1 0 1 -1 -1 -3 -5 -5 -5 -5 -5 -5 -5 -5 -5 -5 -8 -11 -13 -15 -14 -15 -16 -19 -21 -23 -22 -20
2 1 3 4 3 5 6 7 7 6 4 0 -1 -1 -1 -1 0 1 1 0 -0 -3 -4 -5 -5 -4 -4 -4 -5 -5 -5 -7 -8 -9 -10 -12 -13 -13 -15 -16 -16 -15 -14
1 4 6 5 6 6 7 8 7 7 6 2 -0 -0 -0 -0 0 1 1 1 1 -0 -3 -4 -4 -3 -3 -4 -5 -6 -6 -7 -6 -6 -8 -10 -10 -10 -10 -10 -10 -10 -11
3 6 7 7 7 7 8 8 8 7 6 3 0 -0 0 0 1 2 2 1 1 0 -2 -3 -3 -3 -3 -3 -4 -5 -6 -5 -2 -5 -6 -7 -8 -8 -8 -8 -9 -9 -9
4 4 6 6 7 7 8 8 8 7 7 5 1 0 1 1 1 2 2 1 1 1 -1 -2 -2 -2 -2 -2 -3 -3 -5 -5 -4 -4 -4 -6 -7 -7 -6 -6 -7 -7 -8
4 4 5 7 7 8 8 8 8 8 7 6 3 1 1 1 1 1 1 1 1 1 -1 -1 -1 -2 -2 -2 -2 -3 -4 -3 -5 -6 -6 -5 -5 -5 -5 -6 -7 -6 -8
4 4 4 7 7 7 7 8 8 8 8 5 4 2 2 2 2 3 2 1 -1 -2 -3 -4 -3 -3 -3 -2 -5 -7 -8 -8 -7 -6 -5 -4 -4 -5 -5 -6 -6 -7 -8
3 3 2 3 5 7 7 8 8 9 8 6 4 2 2 3 3 3 2 2 -0 -2 -3 -4 -4 -4 -4 -4 -5 -6 -7 -8 -8 -8 -7 -7 -6 -5 -6 -6 -6 -8 -8
2 2 0 2 5 7 7 8 9 9 8 6 5 3 3 3 4 3 3 4 -1 -2 -3 -4 -4 -4 -4 -4 -6 -9 -11 -10 -9 -9 -10 -10 -9 -7 -7 -7 -7 -6 -3
-1 -2 1 4 5 6 7 7 9 9 8 6 4 4 5 5 5 4 5 1 -2 0 1 -2 -3 -4 -4 -5 -9 -10 -11 -11 -9 -7 -8 -7 -7 -8 -7 -7 -6 -5 -4
3 5 5 4 5 7 7 8 9 9 9 8 5 6 5 5 4 3 4 -0 3 1 0 -0 -3 -4 -6 -7 -10 -10 -8 -8 -6 -6 -5 -6 -6 -6 -6 -6 -6 -6 -6
6 6 7 7 6 6 8 8 8 9 9 8 6 6 6 5 4 4 2 3 3 1 -1 -2 -3 -4 -5 -6 -7 -8 -7 -6 -5 -6 -7 -6 -6 -6 -6 -6 -6 -6 -7
8 7 7 8 8 9 9 8 9 9 9 7 6 6 6 5 4 4 3 3 0 -2 -2 -2 -2 -2 -3 -5 -7 -6 -6 -7 -7 -6 -7 -6 -7 -7 -7 -7 -8 -10 -12
9 9 8 8 9 10 9 8 9 9 9 8 6 6 6 5 4 4 2 -0 -1 -2 -2 -1 -2 -3 -4 -6 -8 -10 -10 -9 -8 -8 -8 -8 -7 -7 -7 -7 -9 -12 -10
10 10 9 8 8 10 9 9 8 8 7 6 6 6 5 4 4 2 0 -1 -1 -2 -1 -2 -3 -5 -7 -10 -10 -10 -9 -9 -9 -8 -7 -6 -6 -6 -6 -6 -9 -13 -11
9 4 5 5 7 9 9 8 8 8 8 7 6 6 5 4 2 1 -1 -1 -1 -2 -2 -4 -6 -9 -9 -10 -10 -10 -9 -10 -10 -8 -8 -6 -6 -6 -9 -6 -9 -11 -8
10 7 6 6 6 9 9 8 7 8 7 6 5 4 3 2 2 -0 -1 -1 -2 -4 -5 -8 -11 -12 -13 -12 -11 -10 -11 -14 -20 -25 -26 -21 -7 -9 -6 -8 -11 -11 -6
11 10 7 9 8 9 9 8 7 7 5 4 4 3 2 1 -1 -1 -3 -3 -5 -8 -15 -16 -13 -11 -12 -12 -14 -20 -24 -22 -20 -18 -18 -16 -11 -9 -8 -9 -11 -9 -9
10 9 8 9 9 9 8 8 7 5 4 4 2 1 0 -1 -3 -3 -6 -6 -10 -13 -12 -11 -12 -18 -23 -27 -24 -23 -19 -15 -12 -12 -8 -11 -13 -9 -9 -7 -9 -9 -8
9 9 9 8 8 7 7 4 4 3 3 2 -0 -0 -1 -2 -2 -5 -8 -9 -10 -12 -19 -25 -29 -31 -29 -25 -19 -15 -11 -9 -9 -8 -8 -8 -13 -11 -11 -7 -7 -7 -9
9 8 8 7 5 4 4 4 3 3 1 -0 -1 -2 -1 -2 -5 -7 -9 -17 -25 -30 -34 -35 -34 -31 -24 -17 -13 -9 -8 -8 -8 -10 -10 -8 -11 -12 -13 -9 -8 -8 -11
7 5 4 4 4 4 3 2 2 -0 -0 -1 -2 -2 -5 -6 -10 -19 -24 -32 -36 -35 -33 -30 -29 -28 -23 -21 -18 -13 -10 -8 -8 -8 -9 -9 -9 -9 -8 -8 -10 -12 -13